Change the Weather History Date:

Monday, October 14, 2013

  Actual Average (KTPA) Record (KTPA)
Temperature  
Mean Temperature 77 °F 77 °F  
Max Temperature 86 °F 85 °F 92 °F (1989)
Min Temperature 68 °F 69 °F 48 °F (1977)
Degree Days  
Heating Degree Days 0 0  
Month to date heating degree days 0  
Since 1 July heating degree days 0  
Cooling Degree Days 12 12  
Month to date cooling degree days 185  
Year to date cooling degree days 3201  
Growing Degree Days 27 (Base 50)    
Moisture  
Dew Point 62 °F    
Average Humidity 67    
Maximum Humidity 88    
Minimum Humidity 40    
Precipitation  
Precipitation 0.00 in 0.07 in 1.82 in (1938)
Month to date precipitation 1.29  
Year to date precipitation 41.31  
Sea Level Pressure  
Sea Level Pressure 30.02 in    
Wind  
Wind Speed 6 mph (NE)    
Max Wind Speed 13 mph    
Max Gust Speed 18 mph    
Visibility 10 miles    
Events      
T = Trace of Precipitation, MM = Missing Value Source: NWS Daily Summary

Daily Weather History Graph

Daily Weather History Graph

Search for Another Location

Airport or City:

Trip Planner

Search our weather history database for the weather conditions in past years. The results will help you decide how hot, cold, wet, or windy it might be!

Date:

Astronomy

Oct. 14, 2013 Rise Set
Actual Time 7:29 AM EDT 7:01 PM EDT
Civil Twilight 7:06 AM EDT 7:24 PM EDT
Nautical Twilight 6:38 AM EDT 7:52 PM EDT
Astronomical Twilight 6:11 AM EDT 8:19 PM EDT
Moon 4:10 PM EDT (10/14) 3:07 AM EDT (10/14)
Length of Visible Light 12h 18m
Length of Day
11h 31m
Waxing Gibbous, 79% of the Moon is Illuminated
Oct 14
Waxing Gibbous
Oct 18
Full
Oct 26
Last Quarter
Nov 3
New
Nov 10
First Quarter

Hourly Weather History & Observations

Time (EDT) Temp. Heat Index Dew Point Humidity Pressure Visibility Wind Dir Wind Speed Gust Speed Precip Events Conditions
12:15 AM 71.6 °F - 60.8 °F 69% 30.06 in 10.0 mi ENE 5.8 mph - N/A   Clear
12:35 AM 69.8 °F - 62.6 °F 78% 30.06 in 10.0 mi ENE 4.6 mph - N/A   Clear
12:55 AM 69.8 °F - 60.8 °F 73% 30.06 in 10.0 mi ENE 4.6 mph - N/A   Clear
1:15 AM 69.8 °F - 62.6 °F 78% 30.05 in 10.0 mi ENE 4.6 mph - N/A   Clear
1:35 AM 69.8 °F - 62.6 °F 78% 30.05 in 10.0 mi NE 4.6 mph - N/A   Clear
1:55 AM 69.8 °F - 62.6 °F 78% 30.05 in 10.0 mi NE 3.5 mph - N/A   Clear
2:15 AM 69.8 °F - 62.6 °F 78% 30.04 in 10.0 mi NNE 3.5 mph - N/A   Clear
2:35 AM 68.0 °F - 62.6 °F 83% 30.04 in 10.0 mi Calm Calm - N/A   Clear
2:55 AM 69.8 °F - 62.6 °F 78% 30.04 in 10.0 mi Calm Calm - N/A   Clear
3:15 AM 69.8 °F - 62.6 °F 78% 30.04 in 10.0 mi Calm Calm - N/A   Clear
3:35 AM 69.8 °F - 62.6 °F 78% 30.03 in 10.0 mi NNE 3.5 mph - N/A   Clear
3:55 AM 68.0 °F - 60.8 °F 78% 30.03 in 10.0 mi NE 5.8 mph - N/A   Clear
4:15 AM 68.0 °F - 62.6 °F 83% 30.03 in 10.0 mi NNE 4.6 mph - N/A   Clear
4:35 AM 68.0 °F - 62.6 °F 83% 30.03 in 10.0 mi NNE 6.9 mph - N/A   Clear
4:55 AM 68.0 °F - 62.6 °F 83% 30.03 in 10.0 mi NNE 8.1 mph - N/A   Clear
5:15 AM 68.0 °F - 62.6 °F 83% 30.03 in 10.0 mi NNE 8.1 mph - N/A   Clear
5:35 AM 68.0 °F - 64.4 °F 88% 30.03 in 10.0 mi NNE 3.5 mph - N/A   Clear
5:55 AM 68.0 °F - 64.4 °F 88% 30.03 in 10.0 mi NE 5.8 mph - N/A   Clear
6:15 AM 68.0 °F - 64.4 °F 88% 30.03 in 10.0 mi NE 5.8 mph - N/A   Clear
6:35 AM 68.0 °F - 64.4 °F 88% 30.03 in 10.0 mi NE 5.8 mph - N/A   Clear
6:55 AM 68.0 °F - 64.4 °F 88% 30.03 in 10.0 mi NNE 5.8 mph - N/A   Clear
7:15 AM 68.0 °F - 64.4 °F 88% 30.03 in 10.0 mi NNE 5.8 mph - N/A   Clear
7:35 AM 68.0 °F - 64.4 °F 88% 30.03 in 10.0 mi NNE 8.1 mph - N/A   Clear
7:55 AM 68.0 °F - 64.4 °F 88% 30.04 in 10.0 mi NE 6.9 mph - N/A   Clear
8:15 AM 69.8 °F - 64.4 °F 83% 30.04 in 10.0 mi NE 6.9 mph - N/A   Clear
8:35 AM 69.8 °F - 64.4 °F 83% 30.04 in 10.0 mi NE 8.1 mph - N/A   Clear
8:55 AM 71.6 °F - 64.4 °F 78% 30.05 in 10.0 mi NNE 8.1 mph - N/A   Clear
9:15 AM 73.4 °F - 64.4 °F 73% 30.06 in 10.0 mi NE 10.4 mph - N/A   Clear
9:35 AM 73.4 °F - 64.4 °F 73% 30.06 in 10.0 mi NE 11.5 mph - N/A   Clear
9:55 AM 75.2 °F - 64.4 °F 69% 30.06 in 10.0 mi NE 6.9 mph - N/A   Clear
10:15 AM 77.0 °F - 66.2 °F 69% 30.07 in 10.0 mi NE 9.2 mph - N/A   Clear
10:35 AM 77.0 °F - 66.2 °F 69% 30.06 in 10.0 mi NE 8.1 mph - N/A   Clear
10:55 AM 78.8 °F - 66.2 °F 65% 30.06 in 10.0 mi NE 5.8 mph - N/A   Clear
11:15 AM 78.8 °F - 64.4 °F 61% 30.06 in 10.0 mi ENE 5.8 mph - N/A   Clear
11:35 AM 80.6 °F 82.3 °F 64.4 °F 58% 30.05 in 10.0 mi NE 8.1 mph - N/A   Clear
11:55 AM 80.6 °F 82.3 °F 64.4 °F 58% 30.05 in 10.0 mi ENE 8.1 mph - N/A   Clear
12:15 PM 82.4 °F 83.4 °F 62.6 °F 51% 30.04 in 10.0 mi ENE 9.2 mph - N/A   Clear
12:35 PM 82.4 °F 83.4 °F 62.6 °F 51% 30.03 in 10.0 mi ENE 6.9 mph - N/A   Clear
12:55 PM 82.4 °F 82.9 °F 60.8 °F 48% 30.03 in 10.0 mi NNE 6.9 mph - N/A   Scattered Clouds
1:15 PM 82.4 °F 82.9 °F 60.8 °F 48% 30.02 in 10.0 mi NNE 8.1 mph - N/A   Scattered Clouds
1:35 PM 86.0 °F 86.1 °F 60.8 °F 43% 30.01 in 10.0 mi NNE 5.8 mph - N/A   Scattered Clouds
1:55 PM 84.2 °F 84.4 °F 60.8 °F 45% 30.00 in 10.0 mi ENE 4.6 mph - N/A   Scattered Clouds
2:15 PM 84.2 °F 84.4 °F 60.8 °F 45% 29.99 in 10.0 mi NNE 8.1 mph - N/A   Mostly Cloudy
2:35 PM 86.0 °F 86.1 °F 60.8 °F 43% 29.98 in 10.0 mi NE 3.5 mph - N/A   Scattered Clouds
2:55 PM 84.2 °F 83.8 °F 59.0 °F 42% 29.97 in 10.0 mi NNE 4.6 mph - N/A   Scattered Clouds
3:15 PM 82.4 °F 82.5 °F 59.0 °F 45% 29.96 in 10.0 mi NNE 5.8 mph - N/A   Scattered Clouds
3:35 PM 86.0 °F 85.4 °F 59.0 °F 40% 29.96 in 10.0 mi NE 5.8 mph 9.2 mph N/A   Scattered Clouds
3:55 PM 86.0 °F 85.4 °F 59.0 °F 40% 29.95 in 10.0 mi ENE 11.5 mph - N/A   Scattered Clouds
4:15 PM 82.4 °F 82.5 °F 59.0 °F 45% 29.94 in 10.0 mi NE 8.1 mph - N/A   Scattered Clouds
4:35 PM 82.4 °F 82.5 °F 59.0 °F 45% 29.95 in 10.0 mi ENE 9.2 mph - N/A   Scattered Clouds
4:55 PM 84.2 °F 83.8 °F 59.0 °F 42% 29.95 in 10.0 mi NNE 8.1 mph - N/A   Scattered Clouds
5:15 PM 80.6 °F 81.1 °F 59.0 °F 48% 29.95 in 10.0 mi North 4.6 mph - N/A   Scattered Clouds
5:35 PM 82.4 °F 82.5 °F 59.0 °F 45% 29.95 in 10.0 mi NNE 5.8 mph - N/A   Clear
5:55 PM 82.4 °F 82.5 °F 59.0 °F 45% 29.96 in 10.0 mi North 6.9 mph - N/A   Scattered Clouds
6:15 PM 80.6 °F 81.1 °F 59.0 °F 48% 29.96 in 10.0 mi NNE 5.8 mph - N/A   Clear
6:35 PM 80.6 °F 81.1 °F 59.0 °F 48% 29.97 in 10.0 mi NNE 6.9 mph - N/A   Clear
6:55 PM 78.8 °F - 59.0 °F 51% 29.97 in 10.0 mi NNE 9.2 mph - N/A   Clear
7:15 PM 78.8 °F - 60.8 °F 54% 29.97 in 10.0 mi NNE 5.8 mph - N/A   Scattered Clouds
7:35 PM 77.0 °F - 60.8 °F 57% 29.97 in 10.0 mi NNE 4.6 mph - N/A   Scattered Clouds
7:55 PM 77.0 °F - 60.8 °F 57% 29.98 in 10.0 mi NNW 3.5 mph - N/A   Clear
8:15 PM 77.0 °F - 62.6 °F 61% 29.98 in 10.0 mi North 4.6 mph - N/A   Clear
8:35 PM 77.0 °F - 62.6 °F 61% 29.99 in 10.0 mi North 5.8 mph - N/A   Clear
8:55 PM 75.2 °F - 64.4 °F 69% 30.00 in 10.0 mi NNE 9.2 mph - N/A   Clear
9:15 PM 73.4 °F - 62.6 °F 69% 30.01 in 10.0 mi NE 10.4 mph - N/A   Clear
9:35 PM 73.4 °F - 62.6 °F 69% 30.01 in 10.0 mi NE 12.7 mph 17.3 mph N/A   Clear
9:55 PM 71.6 °F - 62.6 °F 73% 30.01 in 10.0 mi NE 11.5 mph - N/A   Clear
10:15 PM 71.6 °F - 62.6 °F 73% 30.02 in 10.0 mi NNE 9.2 mph - N/A   Clear
10:35 PM 71.6 °F - 64.4 °F 78% 30.02 in 10.0 mi NE 10.4 mph - N/A   Clear
10:55 PM 71.6 °F - 64.4 °F 78% 30.03 in 10.0 mi NE 11.5 mph 18.4 mph N/A   Clear
11:15 PM 71.6 °F - 64.4 °F 78% 30.03 in 10.0 mi NE 10.4 mph - N/A   Clear
11:35 PM 71.6 °F - 64.4 °F 78% 30.03 in 10.0 mi NE 11.5 mph - N/A   Scattered Clouds
11:55 PM 69.8 °F - 64.4 °F 83% 30.02 in 10.0 mi NE 12.7 mph - N/A   Mostly Cloudy